{"data":{"norad_id":64857,"intl_designator":"2025-152R","name":"STARLINK-34683","alt_names":[],"object_type":"PAYLOAD","status":"ACTIVE","operator":null,"country":"US","launch_date":"2025-07-19","launch_site_code":"AFWTR","launch_vehicle":null,"mission":null,"orbit_class":"UNKNOWN","rcs_meters":null,"size_class":null,"mass_kg":null,"dimensions":null,"purposes":["comms"],"wikipedia_slug":null,"has_3d_model":false,"image_url":null,"decayed_at":null,"tle_current":{"epoch":"2026-05-25T03:36:14.628384Z","epoch_age_seconds":72772,"freshness":"FRESH","line1":"1 64857U 25152R   26145.15016931  .00001189  00000+0  86425-4 0  9996","line2":"2 64857  97.4506   0.5161 0003604  63.6485 296.5112 15.05649241 46925","mean_motion":15.05649241,"eccentricity":0.0003604,"inclination_deg":97.4506,"raan_deg":0.5161,"arg_perigee_deg":63.6485,"mean_anomaly_deg":296.5112,"bstar":8.6425e-5,"rev_number":4692,"period_min":95.63980512776,"perigee_km":547.01675696356,"apogee_km":552.01020743112,"semimajor_km":6927.6504821973,"source":"CELESTRAK","updated_at":"2026-05-25T13:38:20.615448Z"}}}